Weather History for Quillayute, WA

Change the Weather History Date:

Saturday, August 24, 2013

  Actual Average Record
Temperature  
Mean Temperature 61 °F 59 °F  
Max Temperature 69 °F 69 °F 89 °F (1982)
Min Temperature 52 °F 50 °F 39 °F (1973)
Degree Days  
Heating Degree Days 4 6  
Month to date heating degree days 47 132  
Since 1 June heating degree days 340 620  
Since 1 July heating degree days 160 326  
Cooling Degree Days 0 0  
Month to date cooling degree days 4 0  
Year to date cooling degree days 20 11  
Since 1 June cooling degree days 17 10  
Growing Degree Days 12 (Base 50)    
Moisture  
Dew Point 57 °F    
Average Humidity 77    
Maximum Humidity 90    
Minimum Humidity 63    
Precipitation  
Precipitation 0.03 in 0.09 in 1.10 in (2008)
Month to date precipitation 0.80 1.77  
Year to date precipitation 59.61 56.00  
Sea Level Pressure  
Sea Level Pressure 29.91 in    
Wind  
Wind Speed 4 mph (SW)    
Max Wind Speed 12 mph    
Max Gust Speed 15 mph    
Visibility 6 miles    
Events Rain    
T = Trace of Precipitation, MM = Missing Value Source: NWS Daily Summary

Daily Weather History Graph

Daily Weather History Graph

Search for Another Location

Airport:

Trip Planner

Search our weather history database for the weather conditions in past years. The results will help you decide how hot, cold, wet, or windy it might be!

Date:

Astronomy

Aug. 24, 2013 Rise Set
Actual Time 6:25 AM PDT 8:14 PM PDT
Civil Twilight 5:52 AM PDT 8:46 PM PDT
Nautical Twilight 5:12 AM PDT 9:27 PM PDT
Astronomical Twilight 4:27 AM PDT 10:11 PM PDT
Moon 9:46 PM PDT (8/24) 10:55 AM PDT (8/24)
Length of Visible Light 14h 53m
Length of Day
13h 48m
Waning Gibbous, 83% of the Moon is Illuminated
Aug 24
Waning Gibbous
Aug 28
Last Quarter
Sep 5
New
Sep 12
First Quarter
Sep 19
Full

Hourly Weather History & Observations

Time (PDT) Temp. Dew Point Humidity Pressure Visibility Wind Dir Wind Speed Gust Speed Precip Events Conditions
12:11 AM 60.8 °F 57.2 °F 88% 29.90 in 1.5 mi South 3.5 mph - N/A   Overcast
12:31 AM 60.8 °F 57.2 °F 88% 29.90 in 1.2 mi South 4.6 mph - N/A   Overcast
12:40 AM 60.8 °F 57.2 °F 88% 29.90 in 1.8 mi Variable 3.5 mph - N/A   Overcast
12:49 AM 60.8 °F 57.2 °F 88% 29.90 in 2.0 mi South 4.6 mph - N/A   Overcast
12:53 AM 61.0 °F 57.9 °F 90% 29.90 in 2.5 mi South 3.5 mph - N/A   Overcast
1:03 AM 60.8 °F 57.2 °F 88% 29.90 in 4.0 mi South 3.5 mph - N/A   Overcast
1:53 AM 61.0 °F 57.9 °F 90% 29.90 in 4.0 mi SSW 3.5 mph - N/A   Overcast
2:53 AM 61.0 °F 57.9 °F 90% 29.90 in 5.0 mi SSW 3.5 mph - N/A   Overcast
3:53 AM 61.0 °F 57.9 °F 90% 29.90 in 4.0 mi Variable 3.5 mph - N/A   Overcast
4:53 AM 62.1 °F 57.9 °F 86% 29.89 in 4.0 mi Calm Calm - N/A   Overcast
5:22 AM 62.6 °F 57.2 °F 82% 29.89 in 5.0 mi Calm Calm - N/A   Overcast
5:53 AM 62.1 °F 57.9 °F 86% 29.89 in 5.0 mi SSW 3.5 mph - 0.00 in   Overcast
6:35 AM 60.8 °F 57.2 °F 88% 29.89 in 4.0 mi South 3.5 mph - N/A   Overcast
6:50 AM 60.8 °F 57.2 °F 88% 29.89 in 2.5 mi South 3.5 mph - N/A   Overcast
6:53 AM 61.0 °F 57.9 °F 90% 29.89 in 2.5 mi Variable 3.5 mph - N/A   Overcast
7:00 AM 60.8 °F 57.2 °F 88% 29.89 in 3.0 mi Calm Calm - N/A   Overcast
7:44 AM 62.6 °F 57.2 °F 82% 29.90 in 4.0 mi Calm Calm - N/A   Overcast
7:51 AM 62.6 °F 57.2 °F 82% 29.90 in 4.0 mi Calm Calm - N/A   Overcast
7:53 AM 62.1 °F 57.9 °F 86% 29.91 in 4.0 mi Calm Calm - N/A   Overcast
8:27 AM 62.6 °F 57.2 °F 82% 29.91 in 5.0 mi Calm Calm - N/A   Overcast
8:50 AM 62.6 °F 57.2 °F 82% 29.91 in 6.0 mi SSW 4.6 mph - N/A   Haze
8:53 AM 63.0 °F 59.0 °F 87% 29.91 in 6.0 mi SSW 4.6 mph - N/A   Overcast
9:11 AM 62.6 °F 57.2 °F 82% 29.91 in 1.8 mi SSW 6.9 mph - 0.00 in Rain Light Rain
9:21 AM 62.6 °F 57.2 °F 82% 29.91 in 1.5 mi SW 6.9 mph - 0.03 in Rain Light Rain
9:32 AM 60.8 °F 57.2 °F 88% 29.91 in 3.0 mi Variable 3.5 mph - 0.03 in Rain Light Rain
9:53 AM 63.0 °F 59.0 °F 87% 29.91 in 5.0 mi Variable 3.5 mph - 0.03 in   Mostly Cloudy
10:06 AM 62.6 °F 57.2 °F 82% 29.91 in 6.0 mi South 3.5 mph - N/A   Haze
10:16 AM 64.4 °F 59.0 °F 83% 29.91 in 7.0 mi SW 5.8 mph - N/A   Overcast
10:33 AM 66.2 °F 60.8 °F 83% 29.92 in 7.0 mi Variable 5.8 mph - N/A   Mostly Cloudy
10:41 AM 66.2 °F 59.0 °F 78% 29.92 in 7.0 mi SSW 5.8 mph - N/A   Mostly Cloudy
10:53 AM 64.9 °F 59.0 °F 81% 29.92 in 7.0 mi SW 9.2 mph - N/A   Overcast
11:29 AM 66.2 °F 59.0 °F 78% 29.92 in 8.0 mi WSW 6.9 mph - N/A   Mostly Cloudy
11:53 AM 66.9 °F 59.0 °F 76% 29.92 in 8.0 mi SSW 9.2 mph - N/A   Overcast
12:23 PM 68.0 °F 59.0 °F 73% 29.91 in 8.0 mi SSW 8.1 mph - N/A   Mostly Cloudy
12:53 PM 66.0 °F 57.9 °F 75% 29.91 in 8.0 mi SW 10.4 mph - N/A   Overcast
1:53 PM 68.0 °F 57.9 °F 70% 29.92 in 8.0 mi WSW 10.4 mph - N/A   Overcast
2:11 PM 66.2 °F 57.2 °F 73% 29.92 in 8.0 mi WSW 9.2 mph - N/A   Overcast
2:21 PM 66.2 °F 57.2 °F 73% 29.92 in 8.0 mi West 9.2 mph - N/A   Mostly Cloudy
2:28 PM 66.2 °F 57.2 °F 73% 29.93 in 8.0 mi WSW 6.9 mph - N/A   Overcast
2:44 PM 64.4 °F 57.2 °F 77% 29.92 in 7.0 mi West 8.1 mph - N/A   Overcast
2:53 PM 66.0 °F 57.9 °F 75% 29.92 in 8.0 mi WSW 5.8 mph - N/A   Mostly Cloudy
3:21 PM 68.0 °F 57.2 °F 68% 29.92 in 8.0 mi WSW 6.9 mph - N/A   Overcast
3:33 PM 68.0 °F 55.4 °F 64% 29.92 in 9.0 mi SW 10.4 mph - N/A   Overcast
3:51 PM 66.2 °F 57.2 °F 73% 29.92 in 8.0 mi West 6.9 mph - N/A   Overcast
3:53 PM 66.0 °F 57.0 °F 73% 29.92 in 8.0 mi West 8.1 mph - N/A   Mostly Cloudy
4:53 PM 68.0 °F 55.9 °F 65% 29.92 in 9.0 mi WSW 8.1 mph - N/A   Partly Cloudy
5:53 PM 68.0 °F 55.9 °F 65% 29.92 in 9.0 mi West 6.9 mph - N/A   Clear
6:53 PM 66.0 °F 54.0 °F 65% 29.91 in 8.0 mi West 6.9 mph - N/A   Clear
7:53 PM 63.0 °F 54.0 °F 72% 29.91 in 8.0 mi Calm Calm - N/A   Clear
8:53 PM 59.0 °F 53.1 °F 81% 29.93 in 9.0 mi Calm Calm - N/A   Clear
9:53 PM 55.9 °F 52.0 °F 87% 29.94 in 8.0 mi Calm Calm - N/A   Clear
10:53 PM 54.0 °F 50.0 °F 86% 29.94 in 7.0 mi Calm Calm - N/A   Clear
11:53 PM 52.0 °F 46.9 °F 83% 29.95 in 9.0 mi Calm Calm - N/A   Clear